Weather in Maydan

Russia / Republic of Tatarstan     55°27′10″N   48°47′48″E
temp.,
°C
wind,
m/s
gust,
m/s
humid.,
%
clouds,
%
prec.,
mm/h
press.,
hPa
HPBL,
m
10 may, mon
mon1000:00+14se3878100 0.2 1013140
03:00+13s1283100 0.4 101452
06:00+14ne3383100 0.3 101767
09:00+18ese4562100 0.3 1017385
12:00+21se3452100 0.0 1019795
15:00+23ese234778 0.0 10201414
18:00+21ne236188 0.0 102149
21:00+16n337880 0.0 102252
11 may, tue
tue1100:00+13nne3894100 0.0 1023171
03:00+13nne3688100 0.0 1024107
06:00+14ene3881100 0.0 1025200
09:00+19ene4661100 0.0 1026416
12:00+22e4448100 0.0 1026968
15:00+23e3443100 0.0 10271602
18:00+20ene3357100 0.0 102749
21:00+17e3359100 0.0 102726
12 may, wed
wed1200:00+15ene336584 0.0 102832
03:00+14ene337099 0.0 102829
06:00+15ene3774100 0.0 1028169
09:00+20ese4556100 0.0 1028429
12:00+23ese564587 0.0 10281178
15:00+23ese4541100 0.0 10281766
18:00+20e355778 0.0 1028110
21:00+16ese335861 0.0 102821
13 may, thu
thu1300:00+15ese226374 0.0 102811
03:00+14e226798 0.0 102813
06:00+16e25695 0.0 1028159
09:00+21se5751100 0.0 1028588
12:00+23se673967 0.0 10271418
15:00+24se57366 0.0 10261595
18:00+21ese34545 0.0 102686
21:00+17se22570 0.0 102615
14 may, fri
fri1400:00+16se23600 0.0 102620
03:00+15se225999 0.0 102620
06:00+16se256497 0.0 1026135
09:00+22sse574867 0.1 1026511
12:00+24s573933 0.0 10251239
15:00+25s67384 0.1 10241299
18:00+21s38565 0.0 1023213
21:00+17sse34575 0.0 102341